Weather in Oqsoy

Uzbekistan     39°30′00″N   66°36′43″E
temp.,
°C
wind,
m/s
gust,
m/s
humid.,
%
clouds,
%
prec.,
mm/h
press.,
hPa
HPBL,
m
9 may, sun
sun923:00+22se2241100 0.0 101211
02:00+21ene114474 0.0 101111
05:00+20ene475194 0.0 1012149
08:00+19ese576162 0.6 1013184
11:00+25w444492 0.6 10131280
14:00+24wnw334569 0.1 1013881
17:00+25nw213968 0.1 10111375
20:00+20e576299 0.0 1011140
10 may, mon
mon1023:00+18e696999 0.0 1010218
02:00+17e697294 0.1 1009185
05:00+17ene5870100 0.7 1009163
08:00+20e5762100 1.2 1010310
11:00+23ene4552100 2.9 10091001
14:00+24ene5649100 1.0 10091228
17:00+22ene77559 2.6 1008584
20:00+17ene69733 1.9 1010221
11 may, tue
tue1123:00+15e6106789 5.4 1012239
02:00+15e61065100 1.9 1011201
05:00+16ene81450100 2.6 1012430
08:00+18ene71145100 0.0 1014590
11:00+22ene783257 0.0 1014901
14:00+24ene782857 0.0 10131226
17:00+23ne911273 0.0 10131460
20:00+18ne6123412 0.0 1014243
12 may, wed
wed1223:00+16ene510350 0.0 1014197
02:00+15ene610400 0.0 1014197
05:00+15e69430 0.0 1013183
08:00+18ene68420 0.0 1014526
11:00+22ene66340 0.0 10141022
14:00+25ne77264 0.0 10131738
17:00+23ne1012340 0.0 10131544
20:00+18ne10163973 0.0 1013685
13 may, thu
thu1323:00+15ene1016384 0.0 1014517
02:00+12ene814525 0.0 1013434
05:00+11ene813565 0.0 1012325
08:00+15ene913450 0.0 1012408
11:00+21ene893014 0.0 1012682
14:00+24ne882577 0.0 10111124
17:00+22ne10112988 0.0 10111220
20:00+18ne914400 0.0 1012417